Weather History for KHOP - July, 2013

Change the Weather History Date:

Thursday, July 4, 2013

  Actual Average (KCKV) Record (KCKV)
Temperature  
Mean Temperature 68 °F -  
Max Temperature 71 °F - - ()
Min Temperature 64 °F - - ()
Degree Days  
Heating Degree Days 0    
Month to date heating degree days  
Since 1 July heating degree days  
Cooling Degree Days 2    
Month to date cooling degree days  
Growing Degree Days 18 (Base 50)    
Moisture  
Dew Point 69 °F    
Average Humidity 100    
Maximum Humidity 100    
Minimum Humidity 92    
Precipitation  
Precipitation 1.04 in - - ()
Month to date precipitation  
Sea Level Pressure  
Sea Level Pressure 30.08 in    
Wind  
Wind Speed 6 mph (ESE)    
Max Wind Speed 13 mph    
Max Gust Speed -    
Visibility 7 miles    
Events Rain    
T = Trace of Precipitation, MM = Missing Value Source: NWS Daily Summary

Daily Weather History Graph

Daily Weather History Graph

Search for Another Location

Airport or City:

Trip Planner

Search our weather history database for the weather conditions in past years. The results will help you decide how hot, cold, wet, or windy it might be!

Date:

Astronomy

Jul. 04, 2013 Rise Set
Actual Time 5:36 AM CDT 8:12 PM CDT
Civil Twilight 5:06 AM CDT 8:42 PM CDT
Nautical Twilight 4:28 AM CDT 9:20 PM CDT
Astronomical Twilight 3:46 AM CDT 10:02 PM CDT
Moon 2:50 AM CDT (7/4) 5:17 PM CDT (7/4)
Length of Visible Light 15h 36m
Length of Day
14h 35m
Waning Crescent, 11% of the Moon is Illuminated
Jul 4
Waning Crescent
Jul 8
New
Jul 15
First Quarter
Jul 22
Full
Jul 29
Last Quarter

Hourly Weather History & Observations

Time (CDT) Temp. Dew Point Humidity Pressure Visibility Wind Dir Wind Speed Gust Speed Precip Events Conditions
12:58 AM 70.7 °F 68.4 °F 92% 30.07 in 10.0 mi SE 4.6 mph - N/A   Clear
1:58 AM 70.7 °F 70.3 °F 99% 30.07 in 10.0 mi SE 3.5 mph - N/A   Mostly Cloudy
2:58 AM 70.5 °F 70.5 °F 100% 30.07 in 10.0 mi SE 3.5 mph - N/A   Mostly Cloudy
3:58 AM 69.8 °F 69.8 °F 100% 30.07 in 10.0 mi ESE 3.5 mph - N/A   Mostly Cloudy
4:18 AM 69.8 °F 69.8 °F 100% 30.08 in 10.0 mi ESE 3.5 mph - N/A   Mostly Cloudy
4:27 AM 69.8 °F 69.8 °F 100% 30.07 in 10.0 mi ESE 4.6 mph - N/A   Overcast
4:58 AM 69.6 °F 69.6 °F 100% 30.06 in 10.0 mi East 4.6 mph - N/A   Scattered Clouds
5:01 AM 69.8 °F 69.8 °F 100% 30.07 in 10.0 mi East 4.6 mph - N/A   Mostly Cloudy
5:14 AM 69.8 °F 69.8 °F 100% 30.07 in 10.0 mi ESE 5.8 mph - N/A   Light Drizzle
5:37 AM 69.8 °F 69.8 °F 100% 30.08 in 10.0 mi SE 6.9 mph - N/A   Overcast
5:58 AM 69.8 °F 69.6 °F 99% 30.07 in 10.0 mi ESE 4.6 mph - 0.00 in   Overcast
6:03 AM 69.8 °F 69.8 °F 100% 30.08 in 10.0 mi East 3.5 mph - N/A   Light Drizzle
6:29 AM 69.8 °F 69.8 °F 100% 30.08 in 2.5 mi East 6.9 mph - N/A Rain Light Rain
6:31 AM 69.8 °F 69.8 °F 100% 30.09 in 2.5 mi East 5.8 mph - N/A Rain Light Rain
6:32 AM 69.8 °F 69.8 °F 100% 30.09 in 3.0 mi East 5.8 mph - N/A Rain Light Rain
6:35 AM 69.8 °F 69.8 °F 100% 30.09 in 4.0 mi East 4.6 mph - N/A Rain Light Rain
6:45 AM 69.8 °F 69.8 °F 100% 30.09 in 9.0 mi East 4.6 mph - N/A   Light Drizzle
6:56 AM 69.8 °F 69.8 °F 100% 30.09 in 8.0 mi ESE 3.5 mph - N/A Rain Light Rain
6:58 AM 69.6 °F 69.6 °F 100% 30.08 in 8.0 mi ESE 3.5 mph - 0.08 in Rain Light Rain
7:17 AM 69.8 °F 69.8 °F 100% 30.09 in 3.0 mi East 5.8 mph - N/A Rain Rain
7:20 AM 69.8 °F 69.8 °F 100% 30.09 in 3.0 mi ESE 5.8 mph - N/A Rain Light Rain
7:28 AM 69.8 °F 69.8 °F 100% 30.09 in 8.0 mi ESE 8.1 mph - N/A   Drizzle
7:31 AM 69.8 °F 69.8 °F 100% 30.10 in 6.0 mi East 6.9 mph - N/A Rain Rain
7:35 AM 69.8 °F 69.8 °F 100% 30.09 in 3.0 mi East 8.1 mph - N/A Rain Rain
7:36 AM 69.8 °F 69.8 °F 100% 30.09 in 2.5 mi East 8.1 mph - N/A Rain Rain
7:46 AM 68.0 °F 68.0 °F 100% 30.10 in 3.0 mi ESE 10.4 mph - N/A Rain Light Rain
7:51 AM 68.0 °F 68.0 °F 100% 30.09 in 2.5 mi ESE 12.7 mph - N/A Rain Rain
7:57 AM 68.0 °F 68.0 °F 100% 30.09 in 1.8 mi East 11.5 mph - N/A Rain Rain
7:58 AM 67.8 °F 67.8 °F 100% 30.09 in 1.8 mi East 10.4 mph - 0.23 in Rain Rain
8:08 AM 68.0 °F 68.0 °F 100% 30.10 in 1.2 mi East 11.5 mph - N/A Rain Heavy Rain
8:16 AM 68.0 °F 68.0 °F 100% 30.10 in 1.5 mi East 11.5 mph - N/A Rain Light Rain
8:24 AM 68.0 °F 68.0 °F 100% 30.10 in 1.2 mi ESE 8.1 mph - N/A Rain Heavy Rain
8:29 AM 68.0 °F 68.0 °F 100% 30.11 in 1.5 mi ESE 6.9 mph - N/A Rain Rain
8:31 AM 68.0 °F 68.0 °F 100% 30.11 in 2.0 mi ESE 5.8 mph - N/A Rain Rain
8:33 AM 68.0 °F 68.0 °F 100% 30.11 in 3.0 mi ESE 5.8 mph - N/A Rain Light Rain
8:34 AM 68.0 °F 68.0 °F 100% 30.11 in 3.0 mi SE 5.8 mph - N/A Rain Light Rain
8:38 AM 68.0 °F 68.0 °F 100% 30.11 in 2.5 mi SE 6.9 mph - N/A Rain Light Rain
8:39 AM 68.0 °F 68.0 °F 100% 30.11 in 2.5 mi SE 5.8 mph - N/A Rain Light Rain
8:51 AM 68.0 °F 68.0 °F 100% 30.11 in 3.0 mi SE 6.9 mph - N/A Rain Light Rain
8:58 AM 67.5 °F 67.5 °F 100% 30.11 in 3.0 mi SE 4.6 mph - 0.41 in Rain Light Rain
9:14 AM 68.0 °F 68.0 °F 100% 30.11 in 5.0 mi ESE 4.6 mph - N/A Rain Light Rain
9:58 AM 68.2 °F 68.2 °F 100% 30.10 in 9.0 mi ESE 3.5 mph - 0.09 in   Light Drizzle
10:06 AM 68.0 °F 68.0 °F 100% 30.10 in 10.0 mi East 4.6 mph - N/A   Overcast
10:09 AM 68.0 °F 68.0 °F 100% 30.10 in 10.0 mi East 5.8 mph - N/A   Light Drizzle
10:28 AM 68.0 °F 68.0 °F 100% 30.11 in 4.0 mi East 4.6 mph - N/A Rain Light Rain
10:37 AM 68.0 °F 68.0 °F 100% 30.11 in 4.0 mi East 6.9 mph - N/A Rain Light Rain
10:42 AM 69.8 °F 69.8 °F 100% 30.10 in 7.0 mi ENE 6.9 mph - N/A   Light Drizzle
10:58 AM 69.3 °F 69.3 °F 100% 30.11 in 7.0 mi East 6.9 mph - 0.04 in   Heavy Drizzle
11:00 AM 69.8 °F 69.8 °F 100% 30.11 in 6.0 mi East 6.9 mph - N/A   Heavy Drizzle
11:18 AM 69.8 °F 69.8 °F 100% 30.11 in 2.5 mi East 9.2 mph - N/A Rain Rain
11:21 AM 69.8 °F 69.8 °F 100% 30.11 in 2.5 mi East 9.2 mph - N/A Rain Rain
11:25 AM 69.8 °F 69.8 °F 100% 30.11 in 3.0 mi East 8.1 mph - N/A Rain Light Rain
11:55 AM 69.8 °F 69.8 °F 100% 30.10 in 6.0 mi ENE 8.1 mph - N/A Rain Light Rain
11:58 AM 69.8 °F 69.8 °F 100% 30.09 in 7.0 mi East 9.2 mph - 0.13 in   Drizzle
12:04 PM 69.8 °F 69.8 °F 100% 30.11 in 9.0 mi East 9.2 mph - N/A   Light Drizzle
1:59 PM 71.6 °F 71.6 °F 100% 30.09 in 10.0 mi ENE 10.4 mph - N/A   Overcast
2:02 PM 71.6 °F 71.6 °F 100% 30.09 in 10.0 mi East 9.2 mph - N/A   Overcast
2:07 PM 71.6 °F 71.6 °F 100% 30.08 in 10.0 mi East 11.5 mph - N/A   Overcast
2:21 PM 71.6 °F 71.6 °F 100% 30.09 in 10.0 mi East 6.9 mph - N/A   Overcast
2:41 PM 71.6 °F 71.6 °F 100% 30.08 in 8.0 mi East 9.2 mph - N/A   Drizzle
2:42 PM 71.6 °F 71.6 °F 100% 30.08 in 8.0 mi East 8.1 mph - N/A   Drizzle
2:52 PM 69.8 °F 69.8 °F 100% 30.08 in 6.0 mi East 5.8 mph - N/A   Light Drizzle
2:55 PM 70.5 °F 70.5 °F 100% 30.08 in 7.0 mi East 8.1 mph - 0.00 in   Light Drizzle
2:56 PM 69.8 °F 69.8 °F 100% 30.08 in 8.0 mi East 9.2 mph - N/A   Overcast
3:01 PM 69.8 °F 69.8 °F 100% 30.08 in 6.0 mi East 8.1 mph - N/A   Light Drizzle
3:11 PM 71.6 °F 71.6 °F 100% 30.08 in 6.0 mi ESE 6.9 mph - N/A   Light Drizzle
3:12 PM 71.6 °F 71.6 °F 100% 30.08 in 7.0 mi ESE 6.9 mph - N/A   Light Drizzle
3:13 PM 71.6 °F 71.6 °F 100% 30.08 in 8.0 mi ESE 9.2 mph - N/A   Light Drizzle
3:16 PM 71.6 °F 71.6 °F 100% 30.08 in 10.0 mi ESE 10.4 mph - N/A   Overcast
3:19 PM 71.6 °F 71.6 °F 100% 30.08 in 8.0 mi ESE 8.1 mph - N/A   Overcast
3:23 PM 71.6 °F 71.6 °F 100% 30.08 in 6.0 mi ESE 6.9 mph - N/A   Light Drizzle
3:28 PM 69.8 °F 69.8 °F 100% 30.08 in 4.0 mi ESE 8.1 mph - N/A   Light Drizzle
3:37 PM 69.8 °F 69.8 °F 100% 30.08 in 3.0 mi ESE 6.9 mph - N/A Rain Light Rain
3:41 PM 69.8 °F 69.8 °F 100% 30.08 in 2.5 mi ESE 6.9 mph - N/A Rain Light Rain
3:42 PM 69.8 °F 69.8 °F 100% 30.08 in 2.5 mi ESE 8.1 mph - N/A Rain Light Rain
3:46 PM 69.8 °F 69.8 °F 100% 30.08 in 3.0 mi ESE 9.2 mph - N/A Rain Light Rain
3:48 PM 69.8 °F 69.8 °F 100% 30.08 in 3.0 mi ESE 9.2 mph - N/A Rain Light Rain
3:55 PM 69.8 °F 69.8 °F 100% 30.06 in 4.0 mi SE 6.9 mph - 0.06 in   Light Drizzle
3:56 PM 69.8 °F 69.8 °F 100% 30.07 in 5.0 mi SE 6.9 mph - N/A   Light Drizzle
3:58 PM 69.8 °F 69.8 °F 100% 30.07 in 6.0 mi Variable 5.8 mph - N/A   Light Drizzle
4:02 PM 69.8 °F 69.8 °F 100% 30.06 in 9.0 mi ESE 8.1 mph - N/A   Overcast
4:05 PM 69.8 °F 69.8 °F 100% 30.06 in 10.0 mi ESE 8.1 mph - N/A   Overcast
4:58 PM 70.5 °F 70.5 °F 100% 30.05 in 10.0 mi ESE 9.2 mph - 0.00 in   Mostly Cloudy
5:58 PM 70.5 °F 70.5 °F 100% 30.05 in 10.0 mi East 9.2 mph - N/A   Mostly Cloudy
6:58 PM 69.3 °F 69.3 °F 100% 30.05 in 10.0 mi East 11.5 mph - N/A   Partly Cloudy
7:58 PM 68.4 °F 68.4 °F 100% 30.05 in 10.0 mi ESE 8.1 mph - N/A   Partly Cloudy
8:05 PM 68.0 °F 68.0 °F 100% 30.05 in 10.0 mi East 9.2 mph - N/A   Mostly Cloudy
8:15 PM 68.0 °F 68.0 °F 100% 30.05 in 10.0 mi East 11.5 mph - N/A   Mostly Cloudy
8:22 PM 68.0 °F 68.0 °F 100% 30.05 in 10.0 mi East 9.2 mph - N/A   Mostly Cloudy
8:43 PM 68.0 °F 68.0 °F 100% 30.05 in 10.0 mi ESE 5.8 mph - N/A   Mostly Cloudy
8:58 PM 67.8 °F 67.8 °F 100% 30.06 in 10.0 mi East 5.8 mph - N/A   Mostly Cloudy
9:16 PM 68.0 °F 68.0 °F 100% 30.06 in 10.0 mi East 8.1 mph - N/A   Mostly Cloudy
9:26 PM 68.0 °F 68.0 °F 100% 30.05 in 10.0 mi East 8.1 mph - N/A   Mostly Cloudy
9:51 PM 68.0 °F 68.0 °F 100% 30.06 in 10.0 mi East 5.8 mph - N/A   Mostly Cloudy
9:58 PM 67.1 °F 67.1 °F 100% 30.06 in 10.0 mi East 6.9 mph - N/A   Mostly Cloudy
10:22 PM 66.2 °F 66.2 °F 100% 30.06 in 10.0 mi East 4.6 mph - N/A   Scattered Clouds
10:31 PM 66.2 °F 66.2 °F 100% 30.07 in 10.0 mi East 3.5 mph - N/A   Mostly Cloudy
10:40 PM 66.2 °F 66.2 °F 100% 30.06 in 10.0 mi East 3.5 mph - N/A   Scattered Clouds
10:56 PM 66.2 °F 66.2 °F 100% 30.07 in 10.0 mi ENE 4.6 mph - N/A   Mostly Cloudy
10:58 PM 65.7 °F 65.7 °F 100% 30.07 in 10.0 mi ENE 4.6 mph - N/A   Mostly Cloudy
11:06 PM 64.4 °F 64.4 °F 100% 30.07 in 10.0 mi NE 3.5 mph - N/A   Mostly Cloudy
11:14 PM 64.4 °F 64.4 °F 100% 30.07 in 10.0 mi East 3.5 mph - N/A   Mostly Cloudy
11:25 PM 66.2 °F 66.2 °F 100% 30.07 in 10.0 mi ENE 1.2 mph - N/A   Overcast
11:55 PM 64.4 °F 64.4 °F 100% 30.07 in 10.0 mi ENE 2.3 mph - N/A   Scattered Clouds
11:58 PM 65.3 °F 65.3 °F 100% 30.07 in 10.0 mi NNE 2.3 mph - N/A   Scattered Clouds